Weather History for KCEU - August, 2013

Change the Weather History Date:

Sunday, August 18, 2013

  Actual Average Record
Temperature  
Mean Temperature 70 °F -  
Max Temperature 77 °F 87 °F 102 °F (1954)
Min Temperature 66 °F 67 °F 58 °F (1976)
Cooling Degree Days 6    
Growing Degree Days 20 (Base 50)    
Moisture  
Dew Point 65 °F    
Average Humidity 82    
Maximum Humidity 88    
Minimum Humidity 71    
Precipitation  
Precipitation 0.26 in - - ()
Sea Level Pressure  
Sea Level Pressure 30.19 in    
Wind  
Wind Speed 3 mph (NE)    
Max Wind Speed 9 mph    
Max Gust Speed -    
Visibility 8 miles    
Events Rain    
Averages and records for this station are not official NWS values.
T = Trace of Precipitation, MM = Missing Value Source: NWS Daily Summary

Daily Weather History Graph

Daily Weather History Graph

Search for Another Location

Airport or City:

Trip Planner

Search our weather history database for the weather conditions in past years. The results will help you decide how hot, cold, wet, or windy it might be!

Date:

Astronomy

Aug. 18, 2013 Rise Set
Actual Time 6:54 AM EDT 8:15 PM EDT
Civil Twilight 6:27 AM EDT 8:41 PM EDT
Nautical Twilight 5:56 AM EDT 9:13 PM EDT
Astronomical Twilight 5:23 AM EDT 9:46 PM EDT
Moon 6:18 PM EDT (8/18) 4:06 AM EDT (8/18)
Length of Visible Light 14h 13m
Length of Day
13h 21m
Waxing Gibbous, 92% of the Moon is Illuminated
Aug 18
Waxing Gibbous
Aug 20
Full
Aug 28
Last Quarter
Sep 5
New
Sep 12
First Quarter

Hourly Weather History & Observations

Time (EDT) Temp. Dew Point Humidity Pressure Visibility Wind Dir Wind Speed Gust Speed Precip Events Conditions
12:17 AM 66.2 °F 62.6 °F 88% 30.20 in 10.0 mi Calm Calm - 0.00 in Rain Light Rain
12:25 AM 66.2 °F 62.6 °F 88% 30.20 in 10.0 mi Calm Calm - 0.00 in   Overcast
12:54 AM 66.9 °F 63.0 °F 87% 30.17 in 7.0 mi East 4.6 mph - 0.03 in Rain Light Rain
1:54 AM 66.9 °F 62.1 °F 84% 30.16 in 10.0 mi East 5.8 mph - 0.00 in Rain Light Rain
2:54 AM 66.9 °F 63.0 °F 87% 30.15 in 10.0 mi NE 3.5 mph - 0.00 in   Overcast
3:54 AM 66.9 °F 63.0 °F 87% 30.15 in 10.0 mi NE 4.6 mph - 0.00 in   Overcast
4:54 AM 66.9 °F 63.0 °F 87% 30.15 in 9.0 mi ENE 4.6 mph - 0.00 in   Overcast
5:40 AM 66.2 °F 62.6 °F 88% 30.19 in 2.5 mi ENE 3.5 mph - 0.01 in Rain Light Rain
5:50 AM 66.2 °F 62.6 °F 88% 30.18 in 3.0 mi ENE 5.8 mph - 0.01 in Rain Light Rain
5:54 AM 66.9 °F 63.0 °F 87% 30.17 in 3.0 mi NE 6.9 mph - 0.02 in Rain Light Rain
6:20 AM 66.2 °F 62.6 °F 88% 30.19 in 10.0 mi ENE 5.8 mph - 0.00 in Rain Light Rain
6:54 AM 66.9 °F 63.0 °F 87% 30.18 in 10.0 mi NE 4.6 mph - 0.01 in Rain Light Rain
7:54 AM 66.9 °F 63.0 °F 87% 30.19 in 10.0 mi NE 3.5 mph - 0.01 in Rain Light Rain
8:54 AM 68.0 °F 63.0 °F 84% 30.21 in 10.0 mi ENE 3.5 mph - 0.00 in Rain Light Rain
9:54 AM 69.1 °F 64.0 °F 84% 30.22 in 10.0 mi East 3.5 mph - 0.00 in   Overcast
10:54 AM 69.1 °F 64.0 °F 84% 30.23 in 10.0 mi Calm Calm - N/A   Overcast
11:54 AM 70.0 °F 64.9 °F 84% 30.22 in 10.0 mi NE 5.8 mph - N/A   Overcast
12:54 PM 72.0 °F 66.0 °F 81% 30.21 in 10.0 mi Variable 3.5 mph - N/A   Overcast
1:54 PM 73.0 °F 66.0 °F 79% 30.19 in 10.0 mi Variable 3.5 mph - N/A   Overcast
2:13 PM 73.4 °F 66.2 °F 78% 30.21 in 10.0 mi Calm Calm - N/A   Overcast
2:28 PM 75.2 °F 66.2 °F 73% 30.21 in 10.0 mi ENE 3.5 mph - N/A   Overcast
2:37 PM 75.2 °F 66.2 °F 73% 30.21 in 10.0 mi NE 3.5 mph - N/A   Overcast
2:44 PM 75.2 °F 66.2 °F 73% 30.21 in 10.0 mi Calm Calm - N/A   Overcast
2:54 PM 75.9 °F 66.0 °F 71% 30.18 in 10.0 mi NNE 4.6 mph - N/A   Overcast
3:54 PM 75.9 °F 66.0 °F 71% 30.17 in 10.0 mi Calm Calm - N/A   Overcast
4:25 PM 75.2 °F 66.2 °F 73% 30.19 in 10.0 mi Calm Calm - N/A   Overcast
4:54 PM 75.9 °F 66.0 °F 71% 30.17 in 10.0 mi NW 3.5 mph - N/A   Mostly Cloudy
5:02 PM 75.2 °F 66.2 °F 73% 30.20 in 10.0 mi West 9.2 mph - N/A   Mostly Cloudy
5:11 PM 73.4 °F 66.2 °F 78% 30.19 in 1.8 mi WNW 4.6 mph - 0.05 in Rain Heavy Rain
5:18 PM 73.4 °F 66.2 °F 78% 30.19 in 2.0 mi NW 3.5 mph - 0.07 in Rain Rain
5:27 PM 73.4 °F 68.0 °F 83% 30.18 in 9.0 mi Calm Calm - 0.07 in Rain Light Rain
5:54 PM 73.9 °F 69.1 °F 85% 30.15 in 10.0 mi East 3.5 mph - 0.07 in   Clear
6:54 PM 73.0 °F 68.0 °F 84% 30.15 in 10.0 mi East 3.5 mph - N/A   Clear
7:54 PM 73.0 °F 69.1 °F 87% 30.17 in 10.0 mi Calm Calm - 0.00 in Rain Light Rain
8:54 PM 72.0 °F 68.0 °F 87% 30.17 in 10.0 mi NNW 3.5 mph - 0.00 in   Mostly Cloudy
9:54 PM 72.0 °F 68.0 °F 87% 30.19 in 10.0 mi North 3.5 mph - 0.00 in Rain Light Rain
10:54 PM 72.0 °F 68.0 °F 87% 30.19 in 10.0 mi NNE 4.6 mph - 0.01 in   Overcast
11:50 PM 71.6 °F 68.0 °F 88% 30.22 in 2.5 mi Calm Calm - 0.05 in Rain Heavy Rain
11:54 PM 72.0 °F 68.0 °F 87% 30.21 in 2.0 mi Calm Calm - 0.11 in Rain Heavy Rain